CZ-2D DEB, 35271

Orbit data source: Space-Track

CZ-2D DEB, 35271 is space debris in SSO originally from a launch on Tue, 05 Jul 2005 UTC launched from the Jiuquan Satellite Launch Center, China (JSC). Debris objects in space refer to the collection of defunct objects orbiting the Earth. Examples of debris include non-operational satellites, rocket bodies, and fragments generated from explosions, collisions, or faulty payload assembly.

Loading next visibility...
Identifier
35271, 2005-024K
Orbit
SSO
Country
Flag of CNCN / PRC
Related business
Manufacturer
Unknown
Mission
Spacecraft
Bus & Motor
Unknown
Mass
Unknown
Launch date (UTC)
2005-07-05 (20 years ago)
Launch vehicle
Unknown
Launch site
Jiuquan Satellite Launch Center, China (JSC)
Object type
Payload
Rocket body
Debris
Shape & HBR
Unknown shape, 0.1 m
Radar Cross Section
Small (<0.1 m²)

Expand to show TLE details & history
Last TLE update: 2 days ago

TLE from 2 days ago
0 CZ-2D DEB
1 35271U 05024K   25351.80384682  .00036512  00000-0  42334-3 0  9990
2 35271  97.1935  18.4051 0007231  99.9740 260.2335 15.61690246 76187
Epoch: 2025-12-17T19:17Z
TLE epoch observation values (Epoch: 2025-12-17T19:17:32.365Z)
Latitude
0.00003°
Longitude
2.35178°
Altitude
386.76 km
Speed
7.678 km/s
True Right ascension
01h 13m 37s
True Declination
0° 00' 00"
Sunlit
Object was in full shadow at epoch
Visualization orbit readout
Latitude
Unknown
Longitude
Unknown
Altitude
Unknown
Speed
Unknown
Apparent Right ascension
Unknown
Apparent Declination
Unknown
Sunlit
N/A
Visualization observer readout
Local Sidereal Time
12:01:10
Azimuth
Unknown
Elevation
Unknown
Doppler factor
Unknown
Orbital elements
Apogee altitude
384.562 km
Perigee altitude
374.789 km
Semi-major axis
6,757.813 km
Eccentricity
0.00072
Inclination
97.1935°
RAAN
18.4051°
Arg. of periapsis
99.974°
True anomaly
260.15185°
Mean anomaly
260.2335°
Eccentric anomaly
260.19267°
Mean motion
3.90691 °/min
Orbital period
92.14 mins
BSTAR
0.00042334
Loading maneuver chart data...
Computing Atmospheric mass density...
Loading historical data...
Loading historical data...
Loading historical data...
Loading historical data...
Loading historical data...
Loading historical data...
Loading historical data...

Documentation

Showing up to 5 results
|